Location: Newark
(7.0858°N, 171.3717°E)
Time: 07:35:43
(UTC+00:00)

S-56A Canister/Altair - Pass Details

Date: 03 December 2020
Orbit: 633 x 2499 km, 38.9° (Epoch: 27 January)

Event Time Altitude Azimuth Distance (km) Brightness Sun altitude
Rises 07:15:47 0° 281° (W) 6,053 13.1 -14.5°
Reaches altitude 10° 07:22:44 10° 301° (WNW) 4,785 12.1 -16.1°
Maximum altitude 07:29:12 15° 331° (NNW) 4,032 11.3 -17.6°
Drops below altitude 10° 07:34:49 10° 2° (N) 4,034 11.0 -18.9°
Enters shadow 07:37:53 - 17° (NNE) 4,337 11.0 -19.6°
Sets 07:39:48 0° 25° (NNE) 4,618 - -20.1°
